| time (UTC) | temp C | wind direction | speed KPH | gust KPH | rain 1hr cm | rain 24hr cm | rain mn cm | humidity % | barometer mb |
| 20260503203837 | 17 | 65 | 0.0 | 3.2 | 0.00 | 0.00 | 0.00 | 39 | 1015.7 |
| 20260503202831 | 17 | 59 | 1.6 | 14.5 | 0.00 | 0.00 | 0.00 | 39 | 1015.8 |
| 20260503201829 | 17 | 311 | 0.0 | 9.7 | 0.00 | 0.00 | 0.00 | 38 | 1015.8 |
| 20260503200854 | 17 | 119 | 0.0 | 6.4 | 0.00 | 0.00 | 0.00 | 39 | 1016.1 |
| 20260503195832 | 17 | 46 | 3.2 | 6.4 | 0.00 | 0.00 | 0.00 | 39 | 1016.3 |
| 20260503194826 | 17 | 84 | 0.0 | 6.4 | 0.00 | 0.00 | 0.00 | 40 | 1016.3 |
| 20260503193825 | 17 | 67 | 3.2 | 6.4 | 0.00 | 0.00 | 0.00 | 39 | 1017.1 |
| 20260503192819 | 17 | 111 | 1.6 | 4.8 | 0.00 | 0.00 | 0.00 | 41 | 1016.5 |
| 20260503191833 | 17 | 35 | 1.6 | 6.4 | 0.00 | 0.00 | 0.00 | 41 | 1016.5 |
| 20260503190842 | 16 | 72 | 0.0 | 6.4 | 0.00 | 0.00 | 0.00 | 41 | 1016.8 |
| 20260503185821 | 16 | 211 | 1.6 | 8.0 | 0.00 | 0.00 | 0.00 | 40 | 1016.9 |
| 20260503184835 | 16 | 80 | 0.0 | 8.0 | 0.00 | 0.00 | 0.00 | 40 | 1016.9 |
| 20260503183828 | 16 | 40 | 1.6 | 6.4 | 0.00 | 0.00 | 0.00 | 40 | 1016.9 |
| 20260503182826 | 16 | 57 | 0.0 | 8.0 | 0.00 | 0.00 | 0.00 | 41 | 1017.1 |
| 20260503181820 | 16 | 69 | 1.6 | 9.7 | 0.00 | 0.00 | 0.00 | 42 | 1017.1 |
| 20260503180845 | 16 | 360 | 0.0 | 6.4 | 0.00 | 0.00 | 0.00 | 42 | 1017.4 |
| 20260503175829 | 16 | 300 | 1.6 | 6.4 | 0.00 | 0.00 | 0.00 | 42 | 1017.4 |
| 20260503174824 | 15 | 260 | 1.6 | 6.4 | 0.00 | 0.00 | 0.00 | 42 | 1017.4 |
| 20260503173837 | 15 | 60 | 4.8 | 9.7 | 0.00 | 0.00 | 0.00 | 44 | 1017.8 |
| 20260503172832 | 14 | 40 | 1.6 | 9.7 | 0.00 | 0.00 | 0.00 | 44 | 1018.3 |
| 20260503171831 | 14 | 46 | 3.2 | 9.7 | 0.00 | 0.00 | 0.00 | 46 | 1018.3 |
| 20260503170855 | 14 | 18 | 4.8 | 9.7 | 0.00 | 0.00 | 0.00 | 46 | 1018.2 |
| 20260503150844 | 12 | 144 | 1.6 | 3.2 | 0.00 | 0.00 | 0.00 | 53 | 1019.6 |
| 20260503130834 | 8 | 234 | 0.0 | 3.2 | 0.00 | 0.00 | 0.00 | 71 | 1019.9 |
| 20260503080909 | 2 | 235 | 0.0 | 0.0 | 0.00 | 0.00 | 0.00 | 91 | 1016.8 |
| 20260503072835 | 2 | 234 | 0.0 | 0.0 | 0.00 | 0.00 | 0.00 | 90 | 1016.5 |
| 20260503071830 | 2 | 234 | 0.0 | 0.0 | 0.00 | 0.00 | 0.00 | 90 | 1016.5 |
| 20260503070839 | 2 | 234 | 0.0 | 0.0 | 0.00 | 0.00 | 0.00 | 90 | 1016.5 |
| 20260503054823 | 3 | 235 | 0.0 | 0.0 | 0.00 | 0.00 | 0.00 | 86 | 1016.4 |
| 20260503053857 | 3 | 234 | 0.0 | 0.0 | 0.00 | 0.00 | 0.00 | 86 | 1016.5 |
| 20260503052849 | 3 | 235 | 0.0 | 0.0 | 0.00 | 0.00 | 0.00 | 85 | 1016.3 |
| 20260503051821 | 4 | 235 | 0.0 | 0.0 | 0.00 | 0.00 | 0.00 | 84 | 1016.3 |
| 20260503050910 | 4 | 235 | 0.0 | 0.0 | 0.00 | 0.00 | 0.00 | 84 | 1015.9 |
| 20260503045828 | 4 | 234 | 0.0 | 0.0 | 0.00 | 0.00 | 0.00 | 83 | 1015.9 |
| 20260503044823 | 5 | 235 | 0.0 | 0.0 | 0.00 | 0.00 | 0.00 | 82 | 1015.9 |
| 20260503043822 | 5 | 235 | 0.0 | 0.0 | 0.00 | 0.00 | 0.00 | 82 | 1015.9 |
| 20260503042836 | 5 | 235 | 0.0 | 0.0 | 0.00 | 0.00 | 0.00 | 81 | 1015.7 |
| 20260503041830 | 5 | 234 | 0.0 | 0.0 | 0.00 | 0.00 | 0.00 | 80 | 1015.7 |
| 20260503040836 | 5 | 235 | 0.0 | 0.0 | 0.00 | 0.00 | 0.00 | 78 | 1015.9 |
| 20260503035819 | 5 | 234 | 0.0 | 0.0 | 0.00 | 0.00 | 0.00 | 78 | 1015.7 |
| 20260503034833 | 5 | 235 | 0.0 | 1.6 | 0.00 | 0.00 | 0.00 | 77 | 1015.7 |
| 20260503033848 | 6 | 235 | 0.0 | 1.6 | 0.00 | 0.00 | 0.00 | 77 | 1015.4 |
| 20260503032820 | 6 | 235 | 0.0 | 0.0 | 0.00 | 0.00 | 0.00 | 76 | 1015.3 |
| 20260503031818 | 6 | 234 | 0.0 | 1.6 | 0.00 | 0.00 | 0.00 | 75 | 1015.3 |
| 20260503030844 | 6 | 235 | 0.0 | 0.0 | 0.00 | 0.00 | 0.00 | 75 | 1015.4 |
| 20260503025824 | 6 | 235 | 0.0 | 0.0 | 0.00 | 0.00 | 0.00 | 73 | 1015.4 |
| 20260503024822 | 7 | 235 | 0.0 | 0.0 | 0.00 | 0.00 | 0.00 | 71 | 1015.4 |
| 20260503023857 | 7 | 234 | 0.0 | 0.0 | 0.00 | 0.00 | 0.00 | 71 | 1015.1 |
| 20260503022848 | 7 | 235 | 0.0 | 3.2 | 0.00 | 0.00 | 0.00 | 69 | 1015.0 |
| 20260503021822 | 7 | 235 | 0.0 | 0.0 | 0.00 | 0.00 | 0.00 | 67 | 1015.0 |
| 20260503020908 | 8 | 235 | 0.0 | 1.6 | 0.00 | 0.00 | 0.00 | 65 | 1014.7 |
| 20260503015830 | 8 | 235 | 0.0 | 0.0 | 0.00 | 0.00 | 0.00 | 64 | 1014.5 |
| 20260503014825 | 9 | 235 | 0.0 | 1.6 | 0.00 | 0.00 | 0.00 | 62 | 1014.5 |
| 20260503013820 | 9 | 235 | 0.0 | 0.0 | 0.00 | 0.00 | 0.00 | 60 | 1014.3 |
| 20260503012817 | 10 | 234 | 0.0 | 1.6 | 0.00 | 0.00 | 0.00 | 57 | 1014.8 |
| 20260503011831 | 10 | 235 | 0.0 | 3.2 | 0.00 | 0.00 | 0.00 | 55 | 1014.8 |
| 20260503010836 | 11 | 355 | 0.0 | 0.0 | 0.00 | 0.00 | 0.00 | 53 | 1014.7 |
| 20260503005820 | 11 | 355 | 0.0 | 3.2 | 0.00 | 0.00 | 0.00 | 52 | 1014.4 |
| 20260503004834 | 11 | 355 | 1.6 | 4.8 | 0.00 | 0.00 | 0.00 | 48 | 1014.4 |
| 20260503003828 | 11 | 314 | 1.6 | 6.4 | 0.00 | 0.00 | 0.00 | 47 | 1014.3 |
| 20260503002821 | 11 | 346 | 1.6 | 6.4 | 0.00 | 0.00 | 0.00 | 48 | 1014.0 |
| 20260503001820 | 12 | 360 | 0.0 | 3.2 | 0.00 | 0.00 | 0.00 | 49 | 1014.0 |
| 20260503000844 | 12 | 360 | 0.0 | 4.8 | 0.00 | 0.00 | 0.00 | 47 | 1013.7 |
| 20260502235843 | 12 | 22 | 0.0 | 4.8 | 0.00 | 0.00 | 0.00 | 46 | 1013.5 |
| 20260502234836 | 12 | 355 | 0.0 | 9.7 | 0.00 | 0.00 | 0.00 | 44 | 1013.5 |
| 20260502233835 | 13 | 299 | 4.8 | 9.7 | 0.00 | 0.00 | 0.00 | 43 | 1013.2 |
| 20260502232828 | 13 | 291 | 0.0 | 6.4 | 0.00 | 0.00 | 0.00 | 42 | 1012.9 |
| 20260502231822 | 13 | 315 | 3.2 | 11.3 | 0.00 | 0.00 | 0.00 | 41 | 1012.9 |
| 20260502230907 | 13 | 48 | 8.0 | 14.5 | 0.00 | 0.00 | 0.00 | 43 | 1012.7 |
| 20260502225828 | 13 | 14 | 6.4 | 20.9 | 0.00 | 0.00 | 0.00 | 41 | 1012.6 |
| 20260502224823 | 13 | 25 | 6.4 | 9.7 | 0.00 | 0.00 | 0.00 | 41 | 1012.6 |
| 20260502223856 | 13 | 355 | 8.0 | 14.5 | 0.00 | 0.00 | 0.00 | 41 | 1012.6 |
| 20260502222831 | 13 | 5 | 0.0 | 6.4 | 0.00 | 0.00 | 0.00 | 44 | 1012.5 |
| 20260502221823 | 13 | 349 | 3.2 | 9.7 | 0.00 | 0.00 | 0.00 | 43 | 1012.5 |
| 20260502220847 | 13 | 355 | 3.2 | 9.7 | 0.00 | 0.00 | 0.00 | 41 | 1012.2 |
| 20260502215826 | 13 | 277 | 4.8 | 16.1 | 0.00 | 0.00 | 0.00 | 40 | 1012.1 |
| 20260502214825 | 13 | 318 | 1.6 | 14.5 | 0.00 | 0.00 | 0.00 | 42 | 1012.1 |
| 20260502213820 | 13 | 355 | 6.4 | 16.1 | 0.00 | 0.00 | 0.00 | 42 | 1011.8 |
| 20260502212831 | 13 | 338 | 3.2 | 11.3 | 0.00 | 0.00 | 0.00 | 43 | 1011.6 |
| 20260502211828 | 13 | 360 | 0.0 | 16.1 | 0.00 | 0.00 | 0.00 | 43 | 1011.6 |
| 20260502210833 | 13 | 29 | 3.2 | 14.5 | 0.00 | 0.00 | 0.00 | 42 | 1011.4 |
| 20260502205832 | 14 | 9 | 4.8 | 16.1 | 0.00 | 0.00 | 0.00 | 42 | 1011.2 |
| 20260502204826 | 15 | 360 | 6.4 | 12.9 | 0.00 | 0.00 | 0.00 | 40 | 1011.2 |